Regional Weather Roundup
Issued by NWS Cleveland, OH

Home | Current Version | Previous Version | Graphics & Text | Print | Product List | Glossary On
Versions: 1 2 3 4 5 6 7 8 9 10 11 12 13 14 15 16 17 18 19 20 21 22 23 24 25 26 27 28 29 30 31 32 33 34 35 36 37 38 39 40 41 42 43 44 45 46 47 48 49 50
000
ASUS41 KCLE 030010
RWRCLE
OHIO REGIONAL WEATHER ROUNDUP
NATIONAL WEATHER SERVICE WILMINGTON, OH
800 PM EDT WED SEP 02 2015

NOTE: "FAIR" INDICATES FEW OR NO CLOUDS BELOW 12,000 FEET WITH NO
SIGNIFICANT WEATHER AND/OR OBSTRUCTIONS TO VISIBILITY.

OHZ001>008-015>018-024>027-034-035-043-044-030100-
   NORTHWEST OHIO

CITY           SKY/WX    TMP DP  RH WIND       PRES   REMARKS
DEFIANCE       CLEAR     83  68  60 CALM      29.98S
FINDLAY        CLEAR     79  71  76 S7        29.98R
TOLEDO EXPRESS CLEAR     77  75  93 CALM      29.96F
TOLEDO EXEC    PTCLDY    81  71  71 CALM      29.97S
LIMA           PTCLDY    80  67  64 CALM      30.00R
$$

OHZ009>014-019>023-028>033-038-089-030100-
   NORTHEAST OHIO

CITY           SKY/WX    TMP DP  RH WIND       PRES   REMARKS
CLE-HOPKINS    MOCLDY    80  69  69 W5        29.99S
CLE-LAKEFRONT  CLEAR     78  73  84 CALM      29.95S
CUY CO. ARPT   MOCLDY    81  72  74 NW9       29.98S
LORAIN-ELYRIA  MOCLDY    78  71  79 W3        29.98F
ASHTABULA      CLEAR     74  71  91 N3        29.99R
AKRON-CANTON   MOCLDY    79  67  66 SW5       30.00S
WOOSTER        MOCLDY    76  69  79 W5        30.01S
MANSFIELD      MOCLDY    79  70  74 SW6       30.03R
YOUNGSTOWN     PTCLDY    76  69  79 CALM      29.99S
$$

OHZ042-051>053-060>062-070>072-077>081-030100-
  SOUTHWEST OHIO

CITY           SKY/WX    TMP DP  RH WIND       PRES   REMARKS
CINC-COVINGTON PTCLDY    83  68  60 W3        30.02S
CINC-LUNKEN    PTCLDY    77  69  76 NE6       30.02S
HAMILTON       CLEAR     81  69  67 SE3       30.02R
DAYTON         PTCLDY    80  69  69 S7        30.03R
WRIGHT-PAT AFB MOCLDY    79  70  75 S2        30.01S
DAYTON GENERAL PTCLDY    76  68  76 CALM      30.01F
WILMINGTON     MOCLDY    74  68  81 S6        30.03S
$$

OHZ036-037-039>041-045>050-054>059-063>069-073>076-082>088-030100-
  CENTRAL AND SOUTHEAST OHIO

CITY           SKY/WX    TMP DP  RH WIND       PRES   REMARKS
COLUMBUS       MOCLDY    75  69  81 CALM      30.01S
OSU AIRPORT    MOCLDY    74  67  78 CALM      30.01F
BOLTON FIELD   DRIZZLE   74  71  89 SW3       30.02F
RICKENBACK AFB MOCLDY    73  69  89 CALM      30.01S
NEWARK         PTCLDY    74  68  81 SW6       30.01S
MARION         CLOUDY    72  67  84 E7        30.01F
LANCASTER      MOCLDY    73  68  84 CALM      30.02S
ZANESVILLE     PTCLDY    77  66  68 CALM      30.00S
NEW PHILLY     CLEAR     76  68  76 CALM      29.99S
$$



USA.gov is the U.S. government's official web portal to all federal, state and local government web resources and services.